* Astronomy

Members Login
Username 
 
Password 
    Remember Me  
Post Info TOPIC: ATLAS CENTAUR rocket body re-entry


L

Posts: 131433
Date:
RE: ATLAS CENTAUR rocket body re-entry
Permalink  
 


Update:
The ATLAS CENTAUR rocket body re-entered the Earths atmosphere on the 28th October, 2011 @ 13:33 GMT 1 minute.

ATLAS CENTAUR RB
1 12069U 80087B   11300.76736616  .05344953 -11070-4  10911-2 0  5771
2 12069 026.0478 073.5694 0065135 311.8273 047.6927 16.23790605991470

Period: 89.68 minutes
Inclination: 26.04
Apogee: 352 km
Perigee: 166 km
Revolution Number: 99159
Predicted Location: 9N, 207E



__________________


L

Posts: 131433
Date:
Permalink  
 

Update:
The ATLAS CENTAUR rocket body re-entered the Earths atmosphere on the 28th October, 2011 @ 12:34 GMT 11 hours.

ATLAS CENTAUR RB
1 12069U 80087B   11300.76736616  .05344953 -11070-4  10911-2 0  5771
2 12069 026.0478 073.5694 0065135 311.8273 047.6927 16.23790605991470

Period: 89.97 minutes
Inclination: 26.04
Apogee: 358 km
Perigee: 188 km
Revolution Number: 99159
Predicted Location: 23.2N, 322.6E



__________________


L

Posts: 131433
Date:
Permalink  
 

Update:
The ATLAS CENTAUR rocket body is predicted to re-enter the Earths atmosphere on the 28th October, 2011 @ 19:38 GMT 72 hours.

ATLAS CENTAUR RB
1 12069U 80087B   11297.79388291  .01906083 -10768-4  12469-2 0  5655
2 12069 026.0352 096.9593 0127255 273.3451 085.2668 16.00478338990997

Period: 90.3 minutes
Inclination: 26.03
Apogee: 385 km
Perigee: 193 km
Revolution Number: 99166
Predicted Location: 12.3N, 121.5E



__________________


L

Posts: 131433
Date:
Permalink  
 

Update:
The ATLAS CENTAUR rocket body is predicted to re-enter the Earths atmosphere on the 24th October, 2011 @ --:-- GMT -- hours.

ATLAS CENTAUR RB
1 12069U 80087B   11272.42875707 +.00612826 -96934-5 +13811-2 0 05011
2 12069 026.0531 285.1787 0302586 313.0782 044.4815 15.48856633987002

Period: 92.97 minutes
Inclination: 26.05
Apogee: 626 km
Perigee: 214 km
Revolution Number: -
Predicted Location: -



__________________


L

Posts: 131433
Date:
Permalink  
 

An ATLAS CENTAUR rocket body that was launched on the 31st October, 1980, from Cape Canaveral, for the classified US military OPS 6394 Fleet Satellite Communications (FLTSATCOM 4) mission is predicted to re-enter the Earths atmosphere on the 2nd November, 2011 @ --:-- GMT -- hours.

ATLAS CENTAUR RB
1 12069U 80087B   11253.56164676  .00370000  20280-4  10036-2 0  4728
2 12069 026.0775 058.8775 0380439 086.9455 277.4771 15.29473508984090

Period: 94.22 minutes
Inclination: 26.06
Apogee: 747 km
Perigee: 215 km
Revolution Number: -
Predicted Location: -



__________________
Page 1 of 1  sorted by
 
Quick Reply

Please log in to post quick replies.



Create your own FREE Forum
Report Abuse
Powered by ActiveBoard